[[{"header":{"parameterUnit":"m.s-1","parameterCategory":2,"la1":30.2991,"la2":30.254,"lo1":-89.0895,"lo2":-89.0444,"dx":0.0017,"dy":0.0017,"nx":28,"ny":28,"refTime":"2022-11-21T15:00:00:Z","depth":"0","parameterNumber":2,"parameterNumberName":"U-component_of_CURRENTS"},"data":[0,0,0,0,0,0,0,0,0,0,0,0,0,0,0,0,0,0,0,0,0,0,0,0,0,0,0,0,0,0,0,0,0,0,0,0,0,0,0,0,0,0,0,0,0,0,0,0,0,0,0,0,0,0,0,0,0,0,0.2334,0.2334,0,0.2391,0.2391,0.2392,0.2409,0.2409,0.2409,0.2409,0.2413,0.2413,0.2413,0,0,0,0,0,0,0,0,0,0,0,0,0,0.2221,0.2223,0.2333,0.2334,0.2335,0.2391,0.2391,0.2392,0.241,0.2409,0.2409,0.2409,0.2413,0.2413,0.2413,0,0,0,0,0,0,0,0,0,0,0,0,0,0.2271,0.2223,0.2333,0.2352,0.2355,0.2391,0.2391,0.2392,0.241,0.2409,0.2409,0.2409,0.2413,0.2413,0.2414,0.2418,0,0,0.2414,0.2414,0,0,0,0,0,0,0,0,0.2268,0.2275,0.2349,0.2351,0.2354,0.2395,0.2353,0.2399,0.241,0.2386,0.2409,0.2409,0.2403,0.2405,0.2413,0.2418,0.2418,0.2414,0.2415,0.2415,0.2415,0,0,0,0,0,0,0,0.2265,0.2273,0.2354,0.235,0.2353,0.2352,0.2359,0.2362,0.2392,0.2388,0.239,0.24,0.2404,0.2413,0.2413,0.2418,0.2414,0.2415,0.2415,0.2415,0.2453,0.2453,0,0,0,0,0,0,0.2264,0.227,0.2352,0.2356,0.2312,0.2354,0.2362,0.238,0.2394,0.2397,0.24,0.2401,0.2413,0.2413,0.2414,0.2445,0.2415,0.2415,0.2415,0.2452,0.2453,0.2454,0,0,0,0,0,0,0.2261,0.2271,0.235,0.2315,0.2325,0.2357,0.2377,0.2381,0.2395,0.2404,0.2405,0.241,0.2413,0.2413,0.2427,0.2444,0.2415,0.2415,0.2451,0.2452,0.2453,0.249,0,0,0,0,0,0,0.2258,0.227,0.2277,0.2315,0.2327,0.2377,0.2377,0.2383,0.2402,0.2403,0.2412,0.2412,0.2413,0.2427,0.2427,0.2444,0.2415,0.245,0.2451,0.2453,0.2488,0.2493,0.2497,0,0,0,0,0,0.2254,0.2267,0.2277,0.2287,0.2339,0.2378,0.2384,0.2404,0.2402,0.2413,0.2421,0.2412,0.2437,0.2428,0.2428,0.2445,0.2449,0.2451,0.2453,0.2486,0.2492,0.2497,0,0,0,0,0,0,0.222,0.2271,0.2283,0.2311,0.2345,0.2382,0.2394,0.2406,0.2422,0.2421,0.2422,0.2424,0.2445,0.2438,0.2428,0.2461,0.2442,0.2444,0.2467,0.2472,0.2476,0.2482,0.2416,0,0,0,0,0,0.2217,0.2241,0.2288,0.2309,0.2328,0.236,0.2376,0.2394,0.2416,0.2423,0.243,0.2438,0.2453,0.2456,0.2467,0.248,0.2493,0.2492,0.2496,0.25,0.2505,0.2537,0.2545,0.246,0.246,0.246,0,0,0.2208,0.224,0.2252,0.2303,0.233,0.2364,0.237,0.2402,0.2427,0.242,0.2447,0.2455,0.2462,0.2485,0.2493,0.248,0.2534,0.2502,0.2505,0.2509,0.254,0.2548,0.2555,0.2461,0.2461,0.2461,0,0,0.2208,0.2235,0.2258,0.2291,0.2339,0.2363,0.2374,0.2417,0.2434,0.2461,0.2468,0.2487,0.25,0.2517,0.2524,0.2556,0.256,0.2556,0.2579,0.261,0.2617,0.2624,0.2666,0.2676,0.2554,0.2554,0.2554,0,0.2192,0.2233,0.2268,0.2303,0.2329,0.2364,0.2395,0.2423,0.2463,0.248,0.2472,0.2514,0.2517,0.2555,0.257,0.2566,0.2588,0.2558,0.2616,0.2622,0.2629,0.267,0.2681,0.2556,0.2556,0.2556,0.2555,0,0.2218,0.2249,0.2267,0.2323,0.2354,0.2387,0.2436,0.2466,0.2483,0.2509,0.2548,0.2558,0.2584,0.2589,0.2589,0.2636,0.2641,0.2622,0.2603,0.2639,0.2681,0.2692,0.2559,0.2558,0.2558,0.2557,0,0,0.2183,0.2266,0.2272,0.2303,0.2367,0.2399,0.2446,0.25,0.2533,0.2562,0.2602,0.2629,0.2638,0.2647,0.2652,0.2675,0.2741,0.2668,0.2669,0.2712,0.2825,0.2872,0.2888,0.2732,0.2734,0.2735,0.2843,0,0.2189,0.2251,0.2291,0.2344,0.2381,0.2431,0.2469,0.2522,0.2562,0.261,0.2635,0.267,0.266,0.2674,0.27,0.2735,0.2767,0.2714,0.2782,0.2784,0.2823,0.2901,0.2833,0.2926,0.2853,0.2854,0.2856,0,0.2197,0.2242,0.2292,0.2363,0.2383,0.2414,0.2488,0.2532,0.2608,0.2636,0.2683,0.271,0.2767,0.2738,0.2822,0.279,0.2815,0.2831,0.2835,0.2873,0.2851,0.2875,0.2948,0.2881,0.2871,0.287,0.2869,0,0.2159,0.2238,0.2274,0.2302,0.2387,0.2413,0.2458,0.2534,0.2584,0.2661,0.2704,0.2763,0.281,0.2844,0.2905,0.2864,0.2999,0.2941,0.3007,0.3011,0.2963,0.2961,0.2979,0.2996,0.2996,0.2995,0.2995,0,0.2149,0.2179,0.226,0.2284,0.2325,0.2393,0.2441,0.2499,0.2589,0.2655,0.2715,0.279,0.2839,0.2927,0.2945,0.3042,0.3038,0.3041,0.3051,0.2977,0.2974,0.2921,0.2889,0.2999,0.2999,0.2998,0.2997,0,0.2099,0.2153,0.22,0.2284,0.2307,0.2338,0.2432,0.2476,0.2566,0.266,0.2692,0.2836,0.2962,0.3027,0.3113,0.3114,0.3113,0.3205,0.3131,0.3131,0.3105,0.3078,0.3012,0.2916,0.3283,0.3285,0.3286,0,0.2078,0.2097,0.2182,0.2207,0.2242,0.2298,0.2333,0.2441,0.2503,0.2696,0.2745,0.2918,0.3033,0.321,0.3265,0.3339,0.3207,0.3294,0.3196,0.313,0.3106,0.2954,0.2864,0.3148,0.3148,0.3149,0.3149,0,0.2031,0.2057,0.2095,0.2153,0.2193,0.2239,0.2312,0.2364,0.2505,0.2607,0.2777,0.2897,0.3123,0.321,0.3342,0.3365,0.316,0.3304,0.3239,0.3026,0.2856,0.2759,0.306,0.3152,0.3151,0.3151,0.3151,0.3151,0.1976,0.1994,0.2045,0.2086,0.2132,0.2173,0.2186,0.2289,0.2389,0.2532,0.2721,0.2868,0.3087,0.3289,0.3296,0.3297,0.322,0.3194,0.3177,0.3036,0.2907,0.3242,0.3343,0.3344,0.3344,0.3345,0.3346,0,0.1908,0.1941,0.1981,0.2024,0.2034,0.2092,0.2159,0.2168,0.2248,0.2445,0.2583,0.284,0.2985,0.313,0.327,0.3178,0.2974,0.3085,0.2827,0.2748,0.3064,0.3023,0.3054,0.3054,0.3054,0.3054,0.3054,0.3054,0.1874,0.1884,0.191,0.1905,0.1936,0.1923,0.194,0.1984,0.2101,0.2268,0.243,0.2603,0.2946,0.3198,0.3193,0.3101,0.2813,0.2727,0.2664,0.2884,0.2889,0.2895,0.2847,0.284,0.284,0.2213,0.2209,0.2206]},{"header":{"parameterUnit":"m.s-1","parameterCategory":2,"la1":30.2991,"la2":30.254,"lo1":-89.0895,"lo2":-89.0444,"dx":0.0017,"dy":0.0017,"nx":28,"ny":28,"refTime":"2022-11-21T15:00:00:Z","depth":"0","parameterNumber":3,"parameterNumberName":"V-component_of_CURRENTS"},"data":[0,0,0,0,0,0,0,0,0,0,0,0,0,0,0,0,0,0,0,0,0,0,0,0,0,0,0,0,0,0,0,0,0,0,0,0,0,0,0,0,0,0,0,0,0,0,0,0,0,0,0,0,0,0,0,0,0,0,-0.0521,-0.0522,0,-0.0589,-0.059,-0.0591,-0.0644,-0.0644,-0.0644,-0.0645,-0.0755,-0.0757,-0.076,0,0,0,0,0,0,0,0,0,0,0,0,0,-0.0486,-0.0486,-0.0521,-0.0522,-0.0522,-0.0589,-0.059,-0.0591,-0.0643,-0.0644,-0.0644,-0.0645,-0.0754,-0.0757,-0.076,0,0,0,0,0,0,0,0,0,0,0,0,0,-0.0523,-0.0486,-0.0521,-0.0556,-0.0559,-0.0589,-0.059,-0.0592,-0.0643,-0.0644,-0.0644,-0.0645,-0.0753,-0.0756,-0.076,-0.0772,0,0,-0.0772,-0.0774,0,0,0,0,0,0,0,0,-0.0521,-0.0525,-0.055,-0.0553,-0.0557,-0.0607,-0.0618,-0.0654,-0.0643,-0.0613,-0.0645,-0.0645,-0.0708,-0.0716,-0.0728,-0.0778,-0.0782,-0.0772,-0.0775,-0.0776,-0.0777,0,0,0,0,0,0,0,-0.0519,-0.0522,-0.0549,-0.055,-0.0555,-0.0585,-0.0591,-0.0625,-0.0658,-0.0615,-0.0619,-0.0625,-0.0711,-0.0724,-0.0731,-0.0784,-0.0772,-0.0776,-0.0778,-0.078,-0.0852,-0.0852,0,0,0,0,0,0,-0.0504,-0.052,-0.0547,-0.0551,-0.0539,-0.0585,-0.0591,-0.0592,-0.0657,-0.0667,-0.0624,-0.0627,-0.0717,-0.0727,-0.0735,-0.0753,-0.0776,-0.078,-0.0782,-0.0852,-0.0852,-0.0852,0,0,0,0,0,0,-0.0503,-0.0506,-0.0544,-0.0537,-0.0543,-0.0584,-0.0585,-0.0593,-0.0607,-0.0663,-0.0674,-0.063,-0.0718,-0.073,-0.0771,-0.0758,-0.0782,-0.0785,-0.0853,-0.0852,-0.0852,-0.0789,0,0,0,0,0,0,-0.0502,-0.0505,-0.0499,-0.0535,-0.0543,-0.0555,-0.0584,-0.0594,-0.0609,-0.0613,-0.0671,-0.0682,-0.072,-0.0765,-0.0775,-0.0764,-0.0788,-0.0853,-0.0853,-0.0852,-0.0792,-0.0787,-0.0782,0,0,0,0,0,-0.05,-0.0483,-0.0499,-0.0502,-0.0534,-0.0554,-0.0561,-0.0594,-0.0608,-0.0609,-0.0655,-0.068,-0.0767,-0.0768,-0.078,-0.0769,-0.0854,-0.0853,-0.0852,-0.0794,-0.0788,-0.0782,0,0,0,0,0,0,-0.0461,-0.0488,-0.0505,-0.0497,-0.0523,-0.0562,-0.0562,-0.0587,-0.0623,-0.0627,-0.0684,-0.0698,-0.0728,-0.0757,-0.0757,-0.0787,-0.0811,-0.0812,-0.0762,-0.0757,-0.0752,-0.0737,-0.0791,0,0,0,0,0,-0.045,-0.0447,-0.0481,-0.0475,-0.0482,-0.0522,-0.0534,-0.0556,-0.0593,-0.0609,-0.0651,-0.0693,-0.0732,-0.0751,-0.0789,-0.0808,-0.0838,-0.0806,-0.0801,-0.0797,-0.0792,-0.0838,-0.0837,-0.0849,-0.0849,-0.0849,0,0,-0.0433,-0.0447,-0.0446,-0.0467,-0.0487,-0.0493,-0.053,-0.054,-0.0549,-0.0615,-0.0638,-0.0681,-0.0735,-0.0759,-0.0773,-0.0782,-0.0806,-0.0796,-0.0792,-0.0789,-0.0837,-0.0836,-0.0835,-0.0848,-0.0848,-0.0848,0,0,-0.0395,-0.0409,-0.0395,-0.0412,-0.0437,-0.0464,-0.0463,-0.0501,-0.0521,-0.0551,-0.0599,-0.0637,-0.069,-0.0728,-0.0754,-0.0745,-0.0782,-0.0748,-0.071,-0.0755,-0.0754,-0.0754,-0.0774,-0.0776,-0.0742,-0.0742,-0.0742,0,-0.0374,-0.0366,-0.0395,-0.0388,-0.0397,-0.0446,-0.0438,-0.0465,-0.0513,-0.0527,-0.0547,-0.0629,-0.0676,-0.0712,-0.0709,-0.0733,-0.0756,-0.0728,-0.0748,-0.0749,-0.075,-0.0771,-0.0774,-0.0739,-0.074,-0.074,-0.074,0,-0.0333,-0.0329,-0.0319,-0.0332,-0.0344,-0.0343,-0.0384,-0.0401,-0.0432,-0.0464,-0.0503,-0.057,-0.0618,-0.0634,-0.0672,-0.0696,-0.0708,-0.0739,-0.0761,-0.0745,-0.0768,-0.0772,-0.0735,-0.0736,-0.0737,-0.0738,0,0,-0.0279,-0.0289,-0.0286,-0.0284,-0.0314,-0.0318,-0.0332,-0.036,-0.0365,-0.0417,-0.0429,-0.0502,-0.0536,-0.0568,-0.0618,-0.0655,-0.0683,-0.0692,-0.0696,-0.0707,-0.0762,-0.0724,-0.0726,-0.0718,-0.0719,-0.072,-0.0768,0,-0.024,-0.0214,-0.0233,-0.0216,-0.0209,-0.0253,-0.026,-0.0292,-0.0328,-0.0353,-0.0422,-0.0453,-0.0511,-0.0528,-0.0578,-0.066,-0.0694,-0.0665,-0.078,-0.0782,-0.0748,-0.073,-0.0687,-0.0723,-0.0773,-0.0774,-0.0775,0,-0.0194,-0.0185,-0.0156,-0.016,-0.0159,-0.0156,-0.0175,-0.019,-0.0241,-0.0267,-0.0317,-0.037,-0.0435,-0.0484,-0.061,-0.0588,-0.0665,-0.0728,-0.0732,-0.0723,-0.0753,-0.0751,-0.073,-0.0903,-0.0782,-0.0782,-0.0781,0,-0.0142,-0.0131,-0.0105,-0.0106,-0.0117,-0.0111,-0.0123,-0.016,-0.0155,-0.0212,-0.021,-0.0308,-0.0334,-0.046,-0.0582,-0.0602,-0.071,-0.076,-0.0796,-0.0794,-0.0792,-0.0788,-0.0949,-0.0845,-0.0845,-0.0845,-0.0845,0,-0.0095,-0.0073,-0.0076,-0.006,-0.0023,-0.0056,-0.0024,-0.0055,-0.0074,-0.0039,-0.0157,-0.0143,-0.0329,-0.0409,-0.055,-0.0668,-0.0689,-0.078,-0.0805,-0.0766,-0.0759,-0.0938,-0.1046,-0.0847,-0.0846,-0.0846,-0.0846,0,-0.0037,-0.0044,-0.0009,-0.0004,0.0005,0.0031,0.0054,0.0077,0.0041,0.0082,0.0075,-0.0015,-0.0109,-0.0286,-0.0467,-0.0596,-0.0825,-0.0775,-0.0699,-0.0713,-0.091,-0.1015,-0.1201,-0.1274,-0.0833,-0.0832,-0.0831,0,-0.0004,0.002,0.005,0.0083,0.0093,0.0128,0.0162,0.0139,0.0179,0.0184,0.0222,0.0145,0.0142,-0.0117,-0.0366,-0.0592,-0.0781,-0.0716,-0.0755,-0.0905,-0.1042,-0.1132,-0.1187,-0.0728,-0.0727,-0.0726,-0.0725,0,0.0065,0.0075,0.0109,0.0179,0.0224,0.0278,0.0329,0.0384,0.0389,0.0441,0.0512,0.0512,0.0281,0.0089,-0.0235,-0.0418,-0.0833,-0.0699,-0.0893,-0.0997,-0.107,-0.1155,-0.0704,-0.0715,-0.0716,-0.0717,-0.0717,-0.0718,0.0126,0.0166,0.0216,0.0288,0.0346,0.0439,0.0513,0.0592,0.0699,0.0813,0.0777,0.0833,0.0486,0.0062,-0.0218,-0.0716,-0.0755,-0.0867,-0.0986,-0.1066,-0.1128,-0.0631,-0.0646,-0.0646,-0.0647,-0.0647,-0.0648,0,0.0213,0.0254,0.0324,0.0414,0.0507,0.0512,0.0638,0.0735,0.091,0.1024,0.1116,0.1013,0.0585,0.0097,-0.0571,-0.0936,-0.1104,-0.1157,-0.1306,-0.1353,-0.094,-0.0925,-0.0954,-0.0953,-0.0953,-0.0953,-0.0953,-0.0953,0.0262,0.035,0.0385,0.0547,0.0617,0.0756,0.0844,0.0993,0.1111,0.13,0.1373,0.1379,0.1008,-0.0236,-0.1106,-0.1313,-0.1606,-0.1644,-0.1812,-0.1562,-0.1545,-0.1529,-0.1542,-0.1699,-0.17,-0.2162,-0.2167,-0.2171]}],[{"header":{"parameterUnit":"m.s-1","parameterCategory":2,"la1":30.2991,"la2":30.254,"lo1":-89.0895,"lo2":-89.0444,"dx":0.0017,"dy":0.0017,"nx":28,"ny":28,"refTime":"2022-11-21T15:00:00:Z","depth":"2","parameterNumber":2,"parameterNumberName":"U-component_of_CURRENTS"},"data":[0,0,0,0,0,0,0,0,0,0,0,0,0,0,0,0,0,0,0,0,0,0,0,0,0,0,0,0,0,0,0,0,0,0,0,0,0,0,0,0,0,0,0,0,0,0,0,0,0,0,0,0,0,0,0,0,0,0,0.2234,0.2235,0,0.2285,0.2286,0.2287,0.231,0.231,0.231,0.231,0.2341,0.2342,0.2343,0,0,0,0,0,0,0,0,0,0,0,0,0,0.2144,0.2145,0.2234,0.2235,0.2235,0.2285,0.2286,0.2287,0.231,0.231,0.231,0.231,0.2341,0.2342,0.2343,0,0,0,0,0,0,0,0,0,0,0,0,0,0.2188,0.2146,0.2234,0.2253,0.2255,0.2285,0.2286,0.2287,0.231,0.231,0.231,0.231,0.2341,0.2342,0.2343,0.2354,0,0,0.2347,0.2348,0,0,0,0,0,0,0,0,0.2186,0.2191,0.2249,0.2252,0.2254,0.2291,0.2266,0.2308,0.231,0.229,0.231,0.231,0.2323,0.2326,0.2336,0.2355,0.2356,0.2348,0.2348,0.2349,0.2349,0,0,0,0,0,0,0,0.2182,0.2189,0.2255,0.225,0.2253,0.2255,0.2261,0.2274,0.2306,0.2291,0.2293,0.2299,0.2324,0.2335,0.2337,0.2357,0.2348,0.2349,0.235,0.235,0.2413,0.2414,0,0,0,0,0,0,0.2177,0.2187,0.2253,0.2256,0.2219,0.2256,0.2263,0.228,0.2306,0.231,0.2299,0.23,0.2332,0.2335,0.2338,0.2387,0.2349,0.235,0.2351,0.2413,0.2414,0.2415,0,0,0,0,0,0,0.2175,0.2183,0.2251,0.2221,0.223,0.2258,0.2276,0.2281,0.2302,0.2312,0.2316,0.2316,0.2332,0.2336,0.2368,0.2387,0.2351,0.2352,0.2412,0.2413,0.2414,0.2461,0,0,0,0,0,0,0.2172,0.2182,0.2192,0.2222,0.2232,0.2281,0.2276,0.2282,0.2304,0.2306,0.2327,0.233,0.2333,0.2366,0.237,0.2388,0.2353,0.241,0.2412,0.2414,0.2459,0.2464,0.2469,0,0,0,0,0,0.2169,0.2179,0.2192,0.22,0.2245,0.2281,0.2288,0.2306,0.2305,0.2323,0.2339,0.233,0.2378,0.2369,0.2372,0.2391,0.241,0.2412,0.2414,0.2456,0.2463,0.2469,0,0,0,0,0,0,0.2139,0.2184,0.2198,0.2221,0.2255,0.2286,0.2297,0.2312,0.2339,0.234,0.2347,0.2352,0.2385,0.2382,0.2371,0.2413,0.239,0.2393,0.2421,0.2427,0.2432,0.2431,0.2354,0,0,0,0,0,0.2139,0.2164,0.2205,0.2224,0.2241,0.2272,0.2288,0.2307,0.2333,0.2345,0.2361,0.2375,0.2395,0.2406,0.2421,0.2448,0.2456,0.2459,0.2465,0.2469,0.247,0.2505,0.2514,0.2421,0.2421,0.2421,0,0,0.2132,0.2159,0.2173,0.222,0.2245,0.2278,0.2282,0.2314,0.2341,0.2343,0.2381,0.2396,0.2406,0.244,0.2453,0.244,0.2502,0.2471,0.2475,0.2474,0.2508,0.2517,0.2525,0.2422,0.2422,0.2422,0,0,0.2131,0.2157,0.2181,0.2213,0.2258,0.2283,0.2295,0.2339,0.2357,0.2397,0.2405,0.2435,0.2461,0.2479,0.2487,0.2528,0.2529,0.253,0.2556,0.259,0.2598,0.2605,0.2638,0.2648,0.2531,0.2531,0.2531,0,0.2122,0.216,0.2192,0.2224,0.2249,0.2287,0.2319,0.2347,0.2395,0.2418,0.2413,0.2472,0.2478,0.2524,0.2538,0.2539,0.256,0.2533,0.2598,0.2605,0.2611,0.2643,0.2653,0.2534,0.2534,0.2533,0.2533,0,0.2143,0.2177,0.2192,0.225,0.228,0.2314,0.2359,0.2399,0.2422,0.245,0.2502,0.252,0.2556,0.2562,0.2562,0.2614,0.2615,0.2602,0.2583,0.2624,0.2654,0.2664,0.2537,0.2537,0.2536,0.2535,0,0,0.2114,0.2194,0.22,0.2232,0.2298,0.2326,0.2379,0.244,0.2479,0.2518,0.2565,0.2598,0.2614,0.2625,0.2634,0.2658,0.2722,0.2652,0.2653,0.2687,0.2808,0.2788,0.2796,0.2727,0.2729,0.273,0.2815,0,0.2125,0.2186,0.2222,0.228,0.2317,0.2371,0.2418,0.2475,0.2518,0.2574,0.2602,0.2645,0.2636,0.266,0.2687,0.2722,0.2748,0.27,0.2761,0.2763,0.2742,0.2807,0.2616,0.2675,0.2824,0.2826,0.2827,0,0.2131,0.2176,0.2229,0.231,0.233,0.2368,0.2454,0.2501,0.2585,0.2621,0.2675,0.2699,0.2761,0.2729,0.2813,0.2789,0.28,0.2812,0.2816,0.2785,0.2761,0.2656,0.2686,0.2843,0.2842,0.284,0.2839,0,0.2094,0.2177,0.2219,0.2245,0.234,0.2376,0.2429,0.2514,0.2565,0.2652,0.2704,0.2768,0.2818,0.2848,0.2888,0.2859,0.2969,0.293,0.2919,0.2918,0.276,0.2742,0.297,0.297,0.2969,0.2969,0.2969,0,0.2086,0.212,0.2207,0.223,0.2289,0.2357,0.242,0.2492,0.2589,0.265,0.2723,0.2782,0.2851,0.292,0.2926,0.2976,0.3009,0.2941,0.2945,0.2772,0.2755,0.2894,0.2884,0.2972,0.2972,0.2971,0.2971,0,0.2032,0.2092,0.2145,0.224,0.2271,0.2309,0.2416,0.2465,0.2573,0.266,0.2694,0.2825,0.2916,0.298,0.3045,0.3036,0.3068,0.3064,0.2863,0.2842,0.2979,0.297,0.3062,0.3062,0.3063,0.3063,0.3063,0,0.201,0.2031,0.2127,0.2154,0.2194,0.2262,0.2312,0.2439,0.25,0.2671,0.2713,0.2844,0.2906,0.3032,0.3052,0.3091,0.3093,0.2914,0.2812,0.2997,0.2992,0.2983,0.2975,0.2623,0.262,0.2617,0.2614,0,0.1961,0.1993,0.2032,0.2093,0.2144,0.2197,0.2284,0.2327,0.2473,0.2562,0.2669,0.2731,0.2888,0.2857,0.2944,0.2925,0.2897,0.2858,0.3116,0.2634,0.2591,0.2583,0.2588,0.2589,0.2591,0.2593,0.2595,0.2596,0.1909,0.1922,0.1975,0.2018,0.2074,0.2105,0.2116,0.2213,0.2287,0.2393,0.2526,0.2577,0.267,0.2703,0.2656,0.2639,0.2812,0.2681,0.2686,0.2695,0.2634,0.2594,0.2581,0.2584,0.2586,0.2588,0.2589,0,0.1836,0.1862,0.1899,0.1941,0.1949,0.2021,0.2077,0.2069,0.2101,0.2246,0.2325,0.2217,0.225,0.2326,0.2285,0.2321,0.2256,0.221,0.2099,0.213,0.2156,0.2061,0.186,0.1857,0.1854,0.1851,0,0,0.18,0.1799,0.1817,0.1801,0.1829,0.1818,0.182,0.183,0.1909,0.1915,0.1958,0.2166,0.2293,0.2038,0.204,0.1937,0.2001,0.187,0.2472,0.2375,0.2396,0.2468,0.2365,0,0,0,0,0]},{"header":{"parameterUnit":"m.s-1","parameterCategory":2,"la1":30.2991,"la2":30.254,"lo1":-89.0895,"lo2":-89.0444,"dx":0.0017,"dy":0.0017,"nx":28,"ny":28,"refTime":"2022-11-21T15:00:00:Z","depth":"2","parameterNumber":3,"parameterNumberName":"V-component_of_CURRENTS"},"data":[0,0,0,0,0,0,0,0,0,0,0,0,0,0,0,0,0,0,0,0,0,0,0,0,0,0,0,0,0,0,0,0,0,0,0,0,0,0,0,0,0,0,0,0,0,0,0,0,0,0,0,0,0,0,0,0,0,0,-0.0053,-0.0054,0,-0.0108,-0.0109,-0.011,-0.0167,-0.0167,-0.0168,-0.0168,-0.0296,-0.0298,-0.0301,0,0,0,0,0,0,0,0,0,0,0,0,0,-0.0033,-0.0033,-0.0053,-0.0054,-0.0054,-0.0108,-0.0109,-0.011,-0.0167,-0.0167,-0.0168,-0.0168,-0.0295,-0.0298,-0.0302,0,0,0,0,0,0,0,0,0,0,0,0,0,-0.0064,-0.0033,-0.0053,-0.0086,-0.0089,-0.0108,-0.0109,-0.0111,-0.0167,-0.0167,-0.0168,-0.0168,-0.0293,-0.0298,-0.0302,-0.0317,0,0,-0.0316,-0.0318,0,0,0,0,0,0,0,0,-0.0062,-0.0065,-0.0081,-0.0084,-0.0087,-0.0128,-0.0148,-0.0182,-0.0166,-0.0141,-0.0168,-0.0169,-0.0243,-0.0252,-0.0265,-0.0323,-0.0329,-0.0316,-0.0319,-0.0321,-0.0322,0,0,0,0,0,0,0,-0.006,-0.0063,-0.0079,-0.0081,-0.0085,-0.0109,-0.0114,-0.0155,-0.0193,-0.0144,-0.0147,-0.0146,-0.0246,-0.0261,-0.0269,-0.0331,-0.0316,-0.032,-0.0323,-0.0325,-0.0408,-0.0408,0,0,0,0,0,0,-0.0042,-0.0061,-0.0077,-0.008,-0.0071,-0.0109,-0.0115,-0.0117,-0.0191,-0.0201,-0.0146,-0.0149,-0.0253,-0.0264,-0.0274,-0.0303,-0.0321,-0.0325,-0.0328,-0.0409,-0.0408,-0.0407,0,0,0,0,0,0,-0.0042,-0.0043,-0.0075,-0.0069,-0.0074,-0.0108,-0.0111,-0.0118,-0.014,-0.0191,-0.0203,-0.016,-0.0254,-0.0267,-0.031,-0.0308,-0.0327,-0.0331,-0.0409,-0.0408,-0.0408,-0.0358,0,0,0,0,0,0,-0.0041,-0.0043,-0.004,-0.0067,-0.0073,-0.0084,-0.011,-0.0118,-0.0136,-0.0141,-0.0207,-0.0219,-0.0255,-0.0303,-0.0314,-0.0315,-0.0335,-0.041,-0.0409,-0.0408,-0.036,-0.0355,-0.0351,0,0,0,0,0,-0.004,-0.0027,-0.004,-0.0042,-0.0068,-0.0084,-0.009,-0.0119,-0.0136,-0.0142,-0.0186,-0.0218,-0.0305,-0.0306,-0.032,-0.0322,-0.041,-0.0409,-0.0408,-0.0362,-0.0356,-0.0352,0,0,0,0,0,0,-0.0016,-0.0032,-0.0047,-0.004,-0.0061,-0.0092,-0.0094,-0.0118,-0.0157,-0.0163,-0.0219,-0.0234,-0.0269,-0.0299,-0.0299,-0.034,-0.036,-0.0362,-0.032,-0.0315,-0.0311,-0.029,-0.0339,0,0,0,0,0,-0.0008,-0.0004,-0.0029,-0.0024,-0.0032,-0.0066,-0.0076,-0.0095,-0.0129,-0.0147,-0.0194,-0.0237,-0.0273,-0.0297,-0.0334,-0.0362,-0.0388,-0.0368,-0.0364,-0.036,-0.035,-0.0396,-0.0395,-0.0404,-0.0404,-0.0404,0,0,0.0002,-0.0004,-0.0004,-0.0019,-0.0037,-0.004,-0.0075,-0.0084,-0.0089,-0.0155,-0.0182,-0.0228,-0.0277,-0.0305,-0.0323,-0.0333,-0.0369,-0.0358,-0.0355,-0.0347,-0.0395,-0.0394,-0.0393,-0.0403,-0.0403,-0.0403,0,0,0.0032,0.0019,0.0031,0.0018,0.0001,-0.0018,-0.002,-0.0056,-0.0075,-0.0102,-0.0149,-0.0191,-0.0247,-0.0283,-0.0306,-0.0299,-0.0345,-0.0312,-0.0277,-0.0321,-0.0321,-0.0321,-0.0343,-0.0345,-0.031,-0.031,-0.0309,0,0.0045,0.0056,0.0031,0.0039,0.0038,-0.0006,0.0005,-0.0018,-0.0065,-0.0079,-0.01,-0.0185,-0.0231,-0.0267,-0.0264,-0.029,-0.0317,-0.0295,-0.0316,-0.0317,-0.0318,-0.034,-0.0344,-0.0307,-0.0307,-0.0308,-0.0308,0,0.0082,0.0087,0.0094,0.009,0.0084,0.0087,0.0059,0.0035,0.0007,-0.0018,-0.0061,-0.0125,-0.0175,-0.0197,-0.023,-0.0261,-0.0277,-0.0307,-0.0329,-0.0314,-0.0338,-0.0343,-0.0303,-0.0304,-0.0305,-0.0306,0,0,0.0119,0.012,0.0121,0.0131,0.0113,0.0115,0.0104,0.0084,0.0083,0.0026,0.0017,-0.0055,-0.0098,-0.0126,-0.0182,-0.0221,-0.0253,-0.0263,-0.0266,-0.0282,-0.0338,-0.0332,-0.0337,-0.0294,-0.0295,-0.0296,-0.0348,0,0.0153,0.0185,0.0174,0.0201,0.0214,0.0176,0.0177,0.0152,0.0123,0.01,0.0028,-0.0005,-0.0067,-0.0095,-0.0143,-0.023,-0.0264,-0.0235,-0.0351,-0.0354,-0.035,-0.0342,-0.0315,-0.0358,-0.0352,-0.0353,-0.0354,0,0.0193,0.0211,0.0247,0.0262,0.0265,0.0269,0.0262,0.0259,0.0213,0.0185,0.013,0.0076,0.0002,-0.0046,-0.018,-0.0161,-0.0238,-0.0302,-0.0306,-0.032,-0.0356,-0.0375,-0.0367,-0.0362,-0.0361,-0.0361,-0.036,0,0.024,0.0263,0.0297,0.0301,0.0308,0.031,0.0306,0.028,0.0291,0.0233,0.0232,0.013,0.0092,-0.0032,-0.0161,-0.018,-0.0292,-0.0338,-0.0399,-0.0399,-0.0406,-0.0405,-0.0417,-0.0417,-0.0417,-0.0417,-0.0417,0,0.0288,0.0312,0.0319,0.0337,0.0378,0.0364,0.0399,0.0368,0.0358,0.0392,0.0281,0.0288,0.0093,0.0008,-0.013,-0.0267,-0.0273,-0.0384,-0.0413,-0.0386,-0.0383,-0.0414,-0.0413,-0.0419,-0.0418,-0.0418,-0.0418,0,0.0338,0.0338,0.0378,0.0394,0.0402,0.043,0.0461,0.0491,0.0459,0.0498,0.0483,0.0399,0.0283,0.0104,-0.0082,-0.0207,-0.0354,-0.0397,-0.0337,-0.0359,-0.044,-0.0435,-0.0485,-0.0485,-0.0485,-0.0485,-0.0485,0,0.0368,0.0393,0.0427,0.0457,0.0465,0.0505,0.0543,0.0533,0.0575,0.0585,0.0618,0.0523,0.0483,0.0212,-0.0041,-0.028,-0.0317,-0.0402,-0.0438,-0.0424,-0.0448,-0.0443,-0.0439,-0.0427,-0.0427,-0.0426,-0.0426,0,0.0426,0.043,0.0467,0.053,0.0572,0.0635,0.0685,0.0736,0.0752,0.078,0.0823,0.0792,0.0549,0.0313,-0.0016,-0.0179,-0.0372,-0.0403,-0.0414,-0.0408,-0.0372,-0.0395,-0.0392,-0.0424,-0.0424,-0.0424,-0.0424,-0.0424,0.0467,0.0504,0.0547,0.0611,0.0668,0.0756,0.0819,0.0886,0.0965,0.1021,0.0992,0.0954,0.0684,0.0268,-0.0026,-0.0341,-0.0334,-0.0446,-0.0446,-0.0446,-0.0424,-0.039,-0.044,-0.044,-0.044,-0.044,-0.0441,0,0.052,0.0559,0.0625,0.0702,0.0781,0.0796,0.0913,0.0979,0.1086,0.1138,0.1157,0.0925,0.0656,0.0341,-0.012,-0.0394,-0.0432,-0.0479,-0.0465,-0.0465,-0.0465,-0.0444,-0.0466,-0.0467,-0.0468,-0.0468,0,0,0.0547,0.062,0.0655,0.0783,0.0843,0.0953,0.1026,0.1118,0.1178,0.123,0.1213,0.115,0.0773,0.0443,0.0063,-0.0203,-0.0275,-0.0258,-0.0207,-0.0146,-0.0143,-0.0412,-0.0374,0,0,0,0,0]}],[{"header":{"parameterUnit":"m.s-1","parameterCategory":2,"la1":30.2991,"la2":30.254,"lo1":-89.0895,"lo2":-89.0444,"dx":0.0017,"dy":0.0017,"nx":28,"ny":28,"refTime":"2022-11-21T15:00:00:Z","depth":"4","parameterNumber":2,"parameterNumberName":"U-component_of_CURRENTS"},"data":[0,0,0,0,0,0,0,0,0,0,0,0,0,0,0,0,0,0,0,0,0,0,0,0,0,0,0,0,0,0,0,0,0,0,0,0,0,0,0,0,0,0,0,0,0,0,0,0,0,0,0,0,0,0,0,0,0,0,0.1359,0.136,0,0.1403,0.1403,0.1404,0.1446,0.1446,0.1447,0.1448,0.1499,0.1499,0.15,0,0,0,0,0,0,0,0,0,0,0,0,0,0.1298,0.1299,0.1359,0.136,0.136,0.1403,0.1403,0.1404,0.1446,0.1446,0.1447,0.1448,0.1498,0.1499,0.15,0,0,0,0,0,0,0,0,0,0,0,0,0,0.133,0.1299,0.1359,0.1387,0.139,0.1403,0.1403,0.1404,0.1446,0.1446,0.1447,0.1448,0.1498,0.1499,0.15,0.1489,0,0,0.1504,0.1505,0,0,0,0,0,0,0,0,0.1329,0.1333,0.1382,0.1385,0.1389,0.1421,0.1401,0.1433,0.1445,0.1424,0.1448,0.1449,0.1473,0.1476,0.1481,0.1492,0.1494,0.1504,0.1505,0.1505,0.1506,0,0,0,0,0,0,0,0.1326,0.1331,0.1376,0.1383,0.1387,0.1393,0.1398,0.1407,0.1442,0.1426,0.1429,0.1435,0.1475,0.148,0.1483,0.1495,0.1504,0.1505,0.1506,0.1506,0.1604,0.1606,0,0,0,0,0,0,0.1322,0.1329,0.1374,0.1377,0.1361,0.1393,0.1399,0.1409,0.1442,0.1448,0.1434,0.1437,0.1478,0.1481,0.1485,0.1558,0.1505,0.1506,0.1507,0.1602,0.1605,0.1607,0,0,0,0,0,0,0.1321,0.1326,0.1373,0.1354,0.1361,0.1393,0.1403,0.1409,0.1448,0.1448,0.1455,0.147,0.1478,0.1483,0.1521,0.1557,0.1507,0.1508,0.16,0.1603,0.1606,0.165,0,0,0,0,0,0,0.1319,0.1325,0.1344,0.1354,0.1362,0.14,0.1403,0.1409,0.1448,0.1453,0.1481,0.1485,0.1479,0.152,0.1522,0.1558,0.1509,0.1598,0.1601,0.1605,0.1646,0.1654,0.166,0,0,0,0,0,0.1317,0.1333,0.1344,0.1351,0.1382,0.1401,0.1406,0.1431,0.1449,0.1469,0.1492,0.1486,0.1545,0.1522,0.1525,0.1561,0.1596,0.16,0.1605,0.1643,0.1652,0.166,0,0,0,0,0,0,0.1315,0.1339,0.1352,0.1375,0.1397,0.1409,0.1433,0.145,0.1483,0.1497,0.1501,0.1506,0.1556,0.1554,0.1529,0.1603,0.1573,0.1578,0.1601,0.161,0.1617,0.162,0.151,0,0,0,0,0,0.1323,0.1345,0.1363,0.1387,0.14,0.1424,0.1441,0.1458,0.1481,0.1499,0.1517,0.1543,0.157,0.1587,0.1605,0.1638,0.1643,0.1668,0.1675,0.1681,0.1688,0.1717,0.1727,0.1621,0.1621,0.1621,0,0,0.1329,0.1346,0.136,0.1389,0.141,0.1431,0.1438,0.1473,0.1498,0.1498,0.1548,0.1569,0.1586,0.1627,0.165,0.1633,0.1719,0.1687,0.1692,0.1695,0.1722,0.1733,0.1742,0.1624,0.1623,0.1623,0,0,0.1339,0.137,0.1388,0.141,0.1446,0.1458,0.1477,0.1507,0.1533,0.1577,0.1589,0.1632,0.1669,0.1686,0.1699,0.1759,0.1757,0.1776,0.1812,0.184,0.1849,0.1856,0.1889,0.1899,0.1777,0.1778,0.1778,0,0.1346,0.137,0.1397,0.1419,0.144,0.1475,0.1496,0.1526,0.1567,0.1592,0.1604,0.1683,0.1696,0.1747,0.1773,0.1775,0.1793,0.1773,0.1848,0.1856,0.1862,0.1894,0.1905,0.178,0.178,0.178,0.1779,0,0.1363,0.1392,0.1408,0.1447,0.1473,0.1501,0.1538,0.1579,0.162,0.1645,0.1717,0.1744,0.1792,0.1809,0.1811,0.1874,0.1874,0.1853,0.182,0.1875,0.1906,0.1916,0.1784,0.1783,0.1782,0.1782,0,0,0.1344,0.1406,0.1413,0.1436,0.1492,0.151,0.1566,0.1614,0.166,0.1715,0.1772,0.1831,0.1861,0.1879,0.1895,0.1922,0.1992,0.1916,0.1917,0.194,0.2068,0.1961,0.1962,0.1985,0.1987,0.1988,0.2074,0,0.1348,0.1388,0.142,0.1465,0.1487,0.1541,0.1587,0.1642,0.1698,0.1763,0.1814,0.1877,0.1883,0.1923,0.1955,0.1983,0.2019,0.1971,0.202,0.2021,0.1911,0.197,0.1994,0.2081,0.2084,0.2085,0.2086,0,0.1342,0.1372,0.1413,0.1475,0.1492,0.1533,0.1617,0.1663,0.1758,0.1804,0.188,0.1925,0.2,0.1989,0.2074,0.2048,0.2071,0.2084,0.2087,0.1976,0.1932,0.2013,0.2104,0.2103,0.2102,0.21,0.2099,0,0.13,0.1362,0.1396,0.1419,0.1497,0.1541,0.1594,0.1685,0.1733,0.1843,0.1899,0.1982,0.2048,0.2087,0.214,0.2117,0.2219,0.2181,0.2109,0.2102,0.2151,0.2142,0.2238,0.2238,0.2238,0.2238,0.2238,0,0.1273,0.1302,0.1389,0.1409,0.1463,0.153,0.1606,0.1669,0.1771,0.1833,0.1928,0.199,0.2078,0.2148,0.2169,0.2178,0.2249,0.2128,0.2117,0.2171,0.2163,0.2159,0.2148,0.2241,0.224,0.224,0.2239,0,0.1214,0.127,0.1315,0.141,0.1444,0.1489,0.1606,0.1656,0.1767,0.1856,0.1899,0.2023,0.2113,0.2187,0.226,0.2211,0.2227,0.2212,0.2291,0.2281,0.2084,0.2075,0.2128,0.2125,0.2122,0.212,0.2118,0,0.1183,0.1202,0.1306,0.1339,0.139,0.1473,0.1524,0.1639,0.1689,0.186,0.1887,0.2028,0.2103,0.2124,0.2201,0.2238,0.2214,0.2206,0.2118,0.2089,0.2074,0.2069,0.2064,0.2114,0.2113,0.2113,0.2112,0,0.1124,0.1176,0.1216,0.1289,0.135,0.1407,0.1495,0.1519,0.1655,0.1771,0.184,0.1901,0.2002,0.2055,0.211,0.2126,0.2194,0.2178,0.2182,0.2099,0.2073,0.2059,0.2057,0.2103,0.2104,0.2105,0.2106,0,0.1085,0.1101,0.1169,0.1222,0.1291,0.1324,0.1381,0.1446,0.1509,0.1686,0.1707,0.186,0.198,0.2,0.2047,0.2061,0.2023,0.1944,0.1959,0.197,0.1879,0.182,0.1774,0,0,0,0,0,0.1038,0.1051,0.1097,0.1147,0.1212,0.1258,0.1349,0.1408,0.1537,0.1543,0.162,0.1707,0.1787,0.186,0.1845,0.1986,0.2034,0.196,0.1949,0.2053,0.2064,0.1971,0,0,0,0,0,0,0.1006,0.1046,0.1066,0.1075,0.1098,0.1158,0.1215,0.1303,0.1309,0.1448,0.1497,0.161,0.1708,0.1784,0.1815,0.1839,0.1799,0.2053,0.2049,0.2047,0.2057,0.2065,0.1973,0,0,0,0,0]},{"header":{"parameterUnit":"m.s-1","parameterCategory":2,"la1":30.2991,"la2":30.254,"lo1":-89.0895,"lo2":-89.0444,"dx":0.0017,"dy":0.0017,"nx":28,"ny":28,"refTime":"2022-11-21T15:00:00:Z","depth":"4","parameterNumber":3,"parameterNumberName":"V-component_of_CURRENTS"},"data":[0,0,0,0,0,0,0,0,0,0,0,0,0,0,0,0,0,0,0,0,0,0,0,0,0,0,0,0,0,0,0,0,0,0,0,0,0,0,0,0,0,0,0,0,0,0,0,0,0,0,0,0,0,0,0,0,0,0,0.0181,0.0181,0,0.0154,0.0154,0.0154,0.0132,0.0132,0.0131,0.0131,0.0084,0.0083,0.0082,0,0,0,0,0,0,0,0,0,0,0,0,0,0.0181,0.0181,0.0181,0.0181,0.0181,0.0154,0.0154,0.0154,0.0132,0.0132,0.0131,0.0131,0.0084,0.0083,0.0082,0,0,0,0,0,0,0,0,0,0,0,0,0,0.017,0.0181,0.0181,0.0167,0.0165,0.0154,0.0154,0.0153,0.0132,0.0132,0.0131,0.0131,0.0085,0.0083,0.0082,0.0077,0,0,0.0077,0.0076,0,0,0,0,0,0,0,0,0.017,0.017,0.0169,0.0168,0.0166,0.0147,0.0136,0.0127,0.0132,0.0144,0.0131,0.0131,0.0104,0.01,0.0095,0.0075,0.0073,0.0076,0.0075,0.0075,0.0074,0,0,0,0,0,0,0,0.0171,0.017,0.017,0.0169,0.0167,0.0151,0.0149,0.0134,0.0125,0.0143,0.0141,0.0139,0.0102,0.0097,0.0094,0.0072,0.0076,0.0075,0.0074,0.0073,0.0027,0.0026,0,0,0,0,0,0,0.0178,0.0171,0.0171,0.0169,0.0168,0.0151,0.0149,0.0153,0.0125,0.0121,0.014,0.0138,0.01,0.0096,0.0092,0.0089,0.0075,0.0073,0.0072,0.0027,0.0027,0.0026,0,0,0,0,0,0,0.0178,0.0178,0.0172,0.017,0.0168,0.0152,0.0155,0.0152,0.0149,0.0123,0.0118,0.014,0.01,0.0095,0.0086,0.0087,0.0072,0.0071,0.0027,0.0027,0.0026,0.008,0,0,0,0,0,0,0.0178,0.0178,0.0184,0.017,0.0168,0.0171,0.0156,0.0152,0.0148,0.0146,0.0122,0.0117,0.0099,0.0089,0.0085,0.0085,0.007,0.0027,0.0027,0.0026,0.0079,0.0082,0.0084,0,0,0,0,0,0.0178,0.0187,0.0184,0.0184,0.0176,0.0172,0.0169,0.0156,0.0148,0.0151,0.0136,0.0118,0.0082,0.0088,0.0083,0.0082,0.0028,0.0027,0.0027,0.0078,0.0081,0.0084,0,0,0,0,0,0,0.0188,0.0186,0.0182,0.0189,0.0184,0.0168,0.0168,0.016,0.015,0.0149,0.0123,0.0118,0.0107,0.0086,0.0094,0.0064,0.0048,0.0047,0.0089,0.0092,0.0094,0.0108,0.0068,0,0,0,0,0,0.0194,0.0202,0.0193,0.02,0.0198,0.0184,0.0181,0.0174,0.0163,0.0158,0.0141,0.0118,0.01,0.0091,0.0072,0.0063,0.0037,0.0054,0.0057,0.006,0.0066,0.0032,0.0033,0.0024,0.0024,0.0024,0,0,0.02,0.0199,0.0204,0.0203,0.0196,0.0203,0.0181,0.0182,0.0188,0.0155,0.0155,0.013,0.01,0.0089,0.0081,0.0074,0.0047,0.0059,0.0062,0.0066,0.0032,0.0033,0.0034,0.0024,0.0024,0.0024,0,0,0.0219,0.0215,0.023,0.0228,0.0224,0.0218,0.022,0.0209,0.0203,0.02,0.0175,0.0154,0.0129,0.0107,0.0093,0.0097,0.0063,0.0085,0.0112,0.008,0.0081,0.0081,0.0046,0.0043,0.0086,0.0086,0.0086,0,0.0228,0.0245,0.0232,0.0244,0.0249,0.0228,0.0246,0.0236,0.0224,0.0223,0.0206,0.0165,0.0136,0.0123,0.0121,0.0104,0.0081,0.0107,0.0085,0.0085,0.0084,0.0048,0.0044,0.0088,0.0088,0.0088,0.0088,0,0.0256,0.0271,0.0278,0.029,0.0292,0.0303,0.0292,0.0292,0.0279,0.0266,0.025,0.021,0.0185,0.0166,0.0146,0.0128,0.011,0.0095,0.0082,0.0089,0.005,0.0044,0.0092,0.0091,0.009,0.009,0,0,0.0276,0.0297,0.03,0.032,0.032,0.0328,0.0337,0.034,0.0349,0.0318,0.0321,0.0275,0.0247,0.0228,0.0193,0.0161,0.013,0.0131,0.0128,0.0106,0.0058,0.0036,0.0027,0.0115,0.0115,0.0114,0.0031,0,0.0306,0.0346,0.0345,0.0385,0.0405,0.0394,0.0409,0.0405,0.0389,0.0383,0.0333,0.0318,0.0272,0.0261,0.0222,0.0158,0.0119,0.0154,0.0046,0.0043,0.003,0.0022,0.0113,0.0027,0.0026,0.0025,0.0024,0,0.0335,0.0361,0.0407,0.0445,0.0453,0.0471,0.0492,0.0502,0.0481,0.0465,0.0433,0.0392,0.0343,0.0301,0.0194,0.0221,0.0144,0.0087,0.0082,0.0041,0.0011,0.0017,0.0014,0.0015,0.0016,0.0016,0.0017,0,0.0362,0.0405,0.0448,0.0458,0.0492,0.0514,0.0531,0.0527,0.0542,0.0516,0.0514,0.0447,0.0414,0.0319,0.0197,0.0196,0.0074,0.0056,-0.0039,-0.0042,-0.0019,-0.0018,-0.0025,-0.0025,-0.0025,-0.0025,-0.0024,0,0.0394,0.0429,0.0467,0.049,0.0546,0.0554,0.0599,0.0601,0.0606,0.0621,0.056,0.0545,0.0417,0.0331,0.0217,0.0074,0.0085,-0.0036,-0.0064,0.0004,0.0008,-0.0023,-0.0021,-0.0028,-0.0027,-0.0027,-0.0026,0,0.0414,0.0438,0.0491,0.054,0.056,0.0598,0.065,0.0676,0.0677,0.0692,0.0688,0.0614,0.0497,0.0362,0.0199,0.01,-0.0033,-0.0089,-0.0005,-0.0027,-0.0133,-0.0128,-0.02,-0.0202,-0.0203,-0.0204,-0.0205,0,0.0427,0.0456,0.0524,0.0557,0.0583,0.0639,0.0678,0.0706,0.073,0.0729,0.0735,0.064,0.0567,0.0331,0.018,-0.0037,-0.0074,-0.0144,-0.0143,-0.0131,-0.0151,-0.0144,-0.0137,-0.0207,-0.0207,-0.0208,-0.0208,0,0.0448,0.0471,0.0513,0.0582,0.0633,0.0694,0.0749,0.0773,0.0799,0.0805,0.0764,0.0644,0.0507,0.0323,0.0154,-0.0003,-0.0094,-0.0157,-0.0156,-0.0156,-0.014,-0.0157,-0.0149,-0.0212,-0.0212,-0.0211,-0.0211,0,0.0458,0.0487,0.0539,0.0597,0.0666,0.0725,0.0757,0.0784,0.0812,0.0811,0.0791,0.0653,0.0575,0.0339,0.0185,0.0029,-0.0019,-0.0071,-0.0075,-0.0072,-0.0014,0.0027,-0.002,0,0,0,0,0,0.0462,0.0492,0.0548,0.0613,0.068,0.0722,0.0793,0.0818,0.0845,0.082,0.0809,0.0682,0.045,0.0354,0.0192,0.0145,-0.0054,-0.0052,-0.0118,-0.0236,-0.0231,-0.0187,0,0,0,0,0,0,0.0463,0.0515,0.0542,0.0613,0.0656,0.0734,0.0782,0.0804,0.0791,0.0795,0.0678,0.0629,0.0406,0.054,0.0184,0.0137,0.007,-0.0154,-0.0158,-0.0239,-0.0235,-0.0231,-0.0183,0,0,0,0,0]}]]